Date String (YYYY-MM-DD hh:mm:ss) UTC,Instrument flags,absolute air pressure of the measurement (hPa),sample flow rate (lpm),inlet stack bypass flow (lpm),air temperature of the measurement (°C),ambient temperature measured by the external sensor (°C),aerosol sample conditioner tube jacket temperature (°C),OPC LED temperature (°C),internal box temperature (°C),relative humidity of the measurement (%),span deviation,mass concentration of particles derived from Lorenz-Mie calculation of OPC scattering (μg/m³),mass concentration of particles derived from Lorenz-Mie calculation of OPC scattering (μg/m³),mass concentration of particles derived from Lorenz-Mie calculation of OPC scattering (μg/m³)
DateTimeUTC,F1_M11,P_M11,Q1_M11,Q2_M11,T1_M11,T2_M11,T3_M11,T4_M11,T5_M11,U1_M11,ZSPAN_M11,X0_M11,X2_M11,X1_M11
2023-06-01 03:00:00,SystemResetWarning,0827.0,5.01,000.00,029.1,027.6,000.0,037.7,030.7,23.6,0000.0,0008.18,0003.46,0002.17
2023-06-01 03:01:00,SystemResetWarning,0827.0,5.01,000.00,029.1,027.6,000.0,037.7,030.7,23.5,0000.0,0008.38,0003.51,0002.22
2023-06-01 03:02:00,SystemResetWarning,0827.0,5.00,000.00,029.1,027.6,000.0,037.6,030.7,23.6,0000.0,0008.83,0003.52,0002.25
2023-06-01 03:03:00,SystemResetWarning,0827.0,5.00,000.00,029.1,027.6,000.0,037.6,030.7,23.7,0000.0,0008.78,0003.53,0002.28
2023-06-01 03:04:00,SystemResetWarning,0827.0,4.99,000.00,029.1,027.6,000.0,037.6,030.7,23.5,0000.0,0008.92,0003.57,0002.31
2023-06-01 03:05:00,SystemResetWarning,0827.0,5.00,000.00,029.1,027.5,000.0,037.6,030.7,23.7,0000.0,0008.86,0003.57,0002.37
2023-06-01 03:06:00,SystemResetWarning,0827.0,5.00,000.00,029.1,027.5,000.0,037.6,030.7,23.9,0000.0,0008.82,0003.56,0002.44
2023-06-01 03:07:00,SystemResetWarning,0827.0,4.99,000.00,029.1,027.5,000.0,037.6,030.7,23.8,0000.0,0008.66,0003.59,0002.51
2023-06-01 03:08:00,SystemResetWarning,0827.0,5.01,000.00,029.1,027.5,000.0,037.6,030.7,23.6,0000.0,0008.56,0003.67,0002.60
2023-06-01 03:09:00,SystemResetWarning,0827.1,5.01,000.00,029.1,027.4,000.0,037.6,030.7,23.6,0000.0,0008.20,0003.72,0002.67
2023-06-01 03:10:00,SystemResetWarning,0827.1,5.00,000.00,029.1,027.4,000.0,037.6,030.7,23.6,0000.0,0008.23,0003.77,0002.79
2023-06-01 03:11:00,SystemResetWarning,0827.1,4.99,000.00,029.1,027.4,000.0,037.6,030.6,23.6,0000.0,0008.38,0003.83,0002.87
2023-06-01 03:12:00,SystemResetWarning,0827.1,5.00,000.00,029.0,027.4,000.0,037.6,030.6,23.8,0000.0,0008.32,0003.87,0002.96
2023-06-01 03:13:00,SystemResetWarning,0827.1,5.01,000.00,029.0,027.4,000.0,037.6,030.6,24.0,0000.0,0008.07,0003.96,0003.06
2023-06-01 03:14:00,SystemResetWarning,0827.1,5.01,000.00,029.0,027.3,000.0,037.6,030.6,24.3,0000.0,0008.04,0003.99,0003.12
2023-06-01 03:15:00,SystemResetWarning,0827.1,5.00,000.00,029.0,027.3,000.0,037.5,030.6,24.6,0000.0,0008.06,0004.05,0003.17
2023-06-01 03:16:00,SystemResetWarning,0827.1,4.99,000.00,029.0,027.3,000.0,037.5,030.5,24.9,0000.0,0008.19,0004.11,0003.20
2023-06-01 03:17:00,SystemResetWarning,0827.1,4.99,000.00,029.0,027.3,000.0,037.5,030.5,25.1,0000.0,0008.27,0004.17,0003.23
2023-06-01 03:18:00,SystemResetWarning,0827.1,5.00,000.00,029.0,027.3,000.0,037.5,030.5,25.1,0000.0,0008.31,0004.21,0003.26
2023-06-01 03:19:00,SystemResetWarning,0827.1,5.01,000.00,028.9,027.3,000.0,037.5,030.5,25.2,0000.0,0008.20,0004.17,0003.25
2023-06-01 03:20:00,SystemResetWarning,0827.1,5.01,000.00,028.9,027.3,000.0,037.5,030.5,25.2,0000.0,0008.13,0004.13,0003.25
2023-06-01 03:21:00,SystemResetWarning,0827.1,5.00,000.00,028.9,027.3,000.0,037.5,030.5,25.2,0000.0,0008.42,0004.14,0003.25
2023-06-01 03:22:00,SystemResetWarning,0827.1,5.00,000.00,028.9,027.3,000.0,037.5,030.5,25.2,0000.0,0008.79,0004.13,0003.24
2023-06-01 03:23:00,SystemResetWarning,0827.1,4.99,000.00,028.9,027.2,000.0,037.5,030.5,24.8,0000.0,0008.89,0004.10,0003.23
2023-06-01 03:24:00,SystemResetWarning,0827.1,4.99,000.00,028.9,027.2,000.0,037.4,030.4,24.8,0000.0,0008.75,0004.05,0003.21
2023-06-01 03:25:00,SystemResetWarning,0827.2,5.00,000.00,028.9,027.2,000.0,037.4,030.5,24.9,0000.0,0008.71,0004.04,0003.20
2023-06-01 03:26:00,SystemResetWarning,0827.1,5.01,000.00,028.9,027.2,000.0,037.4,030.4,24.9,0000.0,0008.56,0003.97,0003.18
2023-06-01 03:27:00,SystemResetWarning,0827.1,5.01,000.00,028.8,027.1,000.0,037.4,030.4,24.9,0000.0,0008.40,0003.92,0003.18
2023-06-01 03:28:00,SystemResetWarning,0827.1,5.00,000.00,028.8,027.1,000.0,037.4,030.4,25.0,0000.0,0008.36,0003.91,0003.16
2023-06-01 03:29:00,SystemResetWarning,0827.2,4.98,000.00,028.8,027.1,000.0,037.4,030.4,25.3,0000.0,0008.84,0003.90,0003.16
2023-06-01 03:30:00,SystemResetWarning,0827.1,5.01,000.00,028.8,027.1,000.0,037.4,030.4,25.5,0000.0,0008.92,0003.91,0003.16
2023-06-01 03:31:00,SystemResetWarning,0827.1,5.01,000.00,028.8,027.1,000.0,037.4,030.4,25.7,0000.0,0008.96,0003.93,0003.16
2023-06-01 03:32:00,SystemResetWarning,0827.2,5.00,000.00,028.8,027.1,000.0,037.3,030.4,25.8,0000.0,0008.68,0003.93,0003.15
2023-06-01 03:33:00,SystemResetWarning,0827.1,4.99,000.00,028.8,027.1,000.0,037.3,030.3,25.8,0000.0,0008.26,0003.93,0003.16
2023-06-01 03:34:00,SystemResetWarning,0827.1,4.99,000.00,028.7,027.0,000.0,037.3,030.3,25.7,0000.0,0008.12,0003.96,0003.17
2023-06-01 03:35:00,SystemResetWarning,0827.1,5.00,000.00,028.7,027.1,000.0,037.3,030.3,25.5,0000.0,0008.15,0003.98,0003.17
2023-06-01 03:36:00,SystemResetWarning,0827.1,5.01,000.00,028.7,027.1,000.0,037.3,030.3,25.4,0000.0,0008.14,0003.99,0003.17
2023-06-01 03:37:00,SystemResetWarning,0827.1,5.01,000.00,028.7,027.1,000.0,037.3,030.3,25.7,0000.0,0008.15,0004.00,0003.17
2023-06-01 03:38:00,SystemResetWarning,0827.1,4.99,000.00,028.7,027.1,000.0,037.3,030.3,25.7,0000.0,0008.24,0004.01,0003.17
2023-06-01 03:39:00,SystemResetWarning,0827.2,4.99,000.00,028.7,027.1,000.0,037.3,030.3,25.6,0000.0,0008.40,0004.01,0003.17
2023-06-01 03:40:00,SystemResetWarning,0827.2,5.00,000.00,028.7,027.1,000.0,037.2,030.3,25.6,0000.0,0007.97,0004.02,0003.16
2023-06-01 03:41:00,SystemResetWarning,0827.2,5.00,000.00,028.7,027.1,000.0,037.2,030.2,25.3,0000.0,0007.96,0004.05,0003.16
2023-06-01 03:42:00,SystemResetWarning,0827.1,5.00,000.00,028.7,027.1,000.0,037.2,030.3,25.5,0000.0,0008.13,0004.09,0003.17
2023-06-01 03:43:00,SystemResetWarning,0827.1,5.01,000.00,028.7,027.1,000.0,037.2,030.3,25.3,0000.0,0008.06,0004.08,0003.18
2023-06-01 03:44:00,SystemResetWarning,0827.1,5.01,000.00,028.7,027.1,000.0,037.2,030.2,25.5,0000.0,0008.11,0004.10,0003.18
2023-06-01 03:45:00,SystemResetWarning,0827.2,5.00,000.00,028.7,027.1,000.0,037.2,030.3,25.6,0000.0,0008.17,0004.14,0003.19
2023-06-01 03:46:00,SystemResetWarning,0827.2,4.99,000.00,028.7,027.1,000.0,037.2,030.3,25.3,0000.0,0008.35,0004.16,0003.19
2023-06-01 03:47:00,SystemResetWarning,0827.1,5.00,000.00,028.7,027.1,000.0,037.2,030.2,25.1,0000.0,0008.50,0004.16,0003.19
2023-06-01 03:48:00,SystemResetWarning,0827.1,5.00,000.00,028.7,027.1,000.0,037.2,030.3,25.2,0000.0,0008.57,0004.17,0003.18
2023-06-01 03:49:00,SystemResetWarning,0827.1,5.00,000.00,028.7,027.1,000.0,037.2,030.3,25.0,0000.0,0008.64,0004.19,0003.19
2023-06-01 03:50:00,SystemResetWarning,0827.1,5.01,000.00,028.7,027.1,000.0,037.2,030.3,25.1,0000.0,0008.72,0004.19,0003.19
2023-06-01 03:51:00,SystemResetWarning,0827.2,5.01,000.00,028.7,027.1,000.0,037.2,030.3,24.7,0000.0,0009.42,0004.19,0003.19
2023-06-01 03:52:00,SystemResetWarning,0827.1,5.00,000.00,028.7,027.1,000.0,037.2,030.3,24.6,0000.0,0009.32,0004.17,0003.19
2023-06-01 03:53:00,SystemResetWarning,0827.2,4.98,000.00,028.7,027.1,000.0,037.2,030.3,24.6,0000.0,0009.22,0004.16,0003.19
2023-06-01 03:54:00,SystemResetWarning,0827.1,5.00,000.00,028.7,027.2,000.0,037.2,030.3,24.7,0000.0,0009.24,0004.16,0003.18
2023-06-01 03:55:00,SystemResetWarning,0827.1,4.99,000.00,028.7,027.2,000.0,037.2,030.3,24.5,0000.0,0009.14,0004.13,0003.16
2023-06-01 03:56:00,SystemResetWarning,0827.1,5.00,000.00,028.7,027.2,000.0,037.2,030.3,24.7,0000.0,0009.06,0004.06,0003.15
2023-06-01 03:57:00,SystemResetWarning,0827.1,5.01,000.00,028.7,027.3,000.0,037.2,030.4,24.4,0000.0,0008.76,0003.98,0003.14
2023-06-01 03:58:00,SystemResetWarning,0827.1,5.00,000.00,028.7,027.3,000.0,037.2,030.4,24.5,0000.0,0008.63,0003.97,0003.15
2023-06-01 03:59:00,SystemResetWarning,0827.1,5.00,000.00,028.8,027.4,000.0,037.2,030.4,24.4,0000.0,0008.90,0003.97,0003.15
